Location: Rounton
(54.4000°N, 1.3500°W)
Time: 14:17:20
(UTC+01:00)

A-11 Canister half - Visible Passes

Search period start: 26 June 2022 00:00
Search period end: 06 July 2022 00:00
Orbit: 1527 x 1682 km, 47.3° (Epoch: 25 June)

Date Brightness Start Highest point End Pass type
(mag) Time Alt. Az. Time Alt. Az. Time Alt. Az.
26 Jun 9.4 00:37:42 10° W 00:46:03 39° SSW 00:54:25 10° SE visible
26 Jun 10.2 02:43:54 10° W 02:48:53 16° SW 02:53:48 10° SSW visible
27 Jun 9.4 00:16:02 10° W 00:24:27 40° SSW 00:32:51 10° SE visible
27 Jun 10.2 02:22:03 10° W 02:27:19 17° SW 02:31:33 12° SSW visible
27 Jun 9.4 23:54:21 10° W 00:02:50 41° SSW 00:11:18 10° SE visible
28 Jun 10.2 02:00:13 10° W 02:05:46 18° SW 02:09:45 13° SSW visible
28 Jun 9.4 23:32:41 10° W 23:41:14 42° SSW 23:49:44 10° SE visible
29 Jun 10.1 01:38:24 10° W 01:44:13 19° SW 01:48:13 14° SSW visible
29 Jun 9.4 23:11:01 10° W 23:19:37 43° SSW 23:28:10 10° SE visible
30 Jun 10.1 01:16:37 10° W 01:22:39 20° SW 01:26:50 14° SSW visible
30 Jun 9.4 22:49:21 10° W 22:58:00 44° SSW 23:06:36 10° SE visible
01 Jul 10.1 00:54:50 10° W 01:01:05 21° SW 01:05:36 14° SSW visible
01 Jul 9.4 22:27:40 10° W 22:36:23 45° SSW 22:45:02 10° SE visible
02 Jul 10.1 00:33:03 10° W 00:39:31 21° SW 00:44:26 14° S visible
03 Jul 10.1 00:11:18 10° W 00:17:57 22° SW 00:23:22 13° S visible
03 Jul 10.1 23:49:33 10° W 23:56:22 24° SW 00:02:22 12° S visible
04 Jul 10.1 23:27:48 10° W 23:34:48 25° SW 23:41:25 11° S visible
05 Jul 10.1 23:06:04 10° W 23:13:13 26° SW 23:20:22 10° S visible
